Regional Weather Roundup
Issued by NWS Burlington, VT

Home | Current Version | Previous Version | Text Only | Print | Product List | Glossary On
Versions: 1 2 3 4 5 6 7 8 9 10 11 12 13 14 15 16 17 18 19 20 21 22 23 24 25 26 27 28 29 30 31 32 33 34 35 36 37 38 39 40 41 42 43 44 45 46 47 48 49 50
000
ASUS41 KBTV 210430
RWRBTV
VERMONT REGIONAL WEATHER ROUNDUP
NATIONAL WEATHER SERVICE BURLINGTON VT
1200 AM EDT SUN SEP 21 2014

NOTE: "FAIR" INDICATES FEW OR NO CLOUDS BELOW 12,000 FEET WITH NO
SIGNIFICANT WEATHER AND/OR OBSTRUCTIONS TO VISIBILITY.

* THESE REPORTS ARE NOT UNDER NWS QUALITY CONTROL AND/OR DO NOT
  REPORT WEATHER SUCH AS PRECIPITATION AND FOG.

VTZ001>019-210500-
_____VERMONT_____


CITY           SKY/WX    TMP DP  RH WIND       PRES   REMARKS
BURLINGTON     PTCLDY    67  56  67 S18G29    29.93F
MONTPELIER     CLOUDY    59  56  89 S6        30.03S
MORRISVILLE    CLOUDY    56  53  90 CALM      29.97S
ST. JOHNSBURY*   N/A     62  55  77 MISG      29.98F
MIDDLEBURY*    FAIR      66  57  71 S15G24    29.98S
RUTLAND*       CLOUDY    59  54  82 SE6       30.02S
SPRINGFIELD    CLEAR     58  55  90 S5        30.06S
HIGHGATE*      FAIR      65  57  73 S14G24    29.89F
NEWPORT*       FAIR      56  54  92 S7        29.97S
BENNINGTON     CLEAR     65  51  60 MISG      30.04F
GALLUP MILLS*    N/A     59 N/A N/A MISG        N/A
UNION VILLAGE*   N/A     61 N/A N/A MISG        N/A
MT. MANSFIELD*   N/A     52 N/A N/A SW14G35     N/A

_____LAKE CHAMPLAIN_____


CITY           SKY/WX    TMP DP  RH WIND       PRES   REMARKS
BURTON ISLAND*   N/A     66  59  77 SE26        N/A
COLCHESTER RF*   N/A     66  59  77 S33         N/A
DIAMOND ISL*     N/A     66  57  72 S21         N/A

$$

NYZ007-026>031-035-052-083-210500-
_____NORTHERN NEW YORK_____


CITY           SKY/WX    TMP DP  RH WIND       PRES   REMARKS
PLATTSBURGH    PTCLDY    64  57  78 S18       29.88F
SARANAC LAKE   PTCLDY    61  55  81 SW18G24   29.91F
MASSENA        MOCLDY    70  59  68 S17G29    29.81F
OGDENSBURG*    CLEAR     68  59  73 S15G24    29.80F
POTSDAM*       CLEAR     70  61  73 SW14G29   29.82F
PARISHVILLE*     N/A     64 N/A N/A S14         N/A
WATERTOWN      PTCLDY    71  56  58 S14G25    29.84F
FT DRUM        CLEAR     68  55  63 S23G37    29.86F
ALBANY         CLEAR     65  56  72 S16G23    30.02S
GLENS FALLS    CLOUDY    65  56  72 S8        30.01S

$$
NHZ002-005-011-210500-
_____NEW HAMPSHIRE_____


CITY           SKY/WX    TMP DP  RH WIND       PRES   REMARKS
LEBANON        PTCLDY    62  54  74 S15       30.03R
KEENE          CLOUDY    57  48  72 SW5       30.08F
MT WASHINGTON  FOG       43  43 100 W41G49      N/A  VSB 0
PLYMOUTH       CLOUDY    52  52 100 CALM      30.06F
WHITEFIELD     CLOUDY    64  53  67 CALM      30.01S

$$

_____REGIONAL QUEBEC LOCATIONS_____


CITY           SKY/WX    TMP DP  RH WIND       PRES   REMARKS
MONTREAL       CLOUDY    63  57  82 S15       29.83F
QUEBEC CITY    CLOUDY    57  55  94 CALM      29.82F
SHERBROOKE     PTCLDY    63  55  77 S12G21    29.91F

_____REGIONAL ONTARIO LOCATIONS_____


CITY           SKY/WX    TMP DP  RH WIND       PRES   REMARKS
OTTAWA         LGT RAIN  64  61  88 S10G18    29.78F

______KEY______
VSB  - VISIBILITY IN MILES
WCI  - WIND CHILL INDEX
HX   - HEAT INDEX
$$
NNNN



USA.gov is the U.S. government's official web portal to all federal, state and local government web resources and services.